Regional Weather Roundup
Issued by NWS

Home | Current Version | Previous Version | Graphics & Text | Print | Product List | Glossary On
Versions: 1 2 3 4 5 6 7 8 9 10 11 12 13 14 15 16 17 18 19 20 21 22 23 24 25 26 27 28 29 30 31 32 33 34 35 36 37 38 39 40 41 42 43 44 45 46 47 48 49 50
772
ASUS44 KLIX 231210
RWRLA
LOUISIANA WEATHER ROUNDUP
NATIONAL WEATHER SERVICE NEW ORLEANS LA
600 AM CST SUN NOV 23 2014

NOTE: "FAIR" INDICATES FEW OR NO CLOUDS BELOW 12,000 FEET WITH NO
      SIGNIFICANT WEATHER AND/OR OBSTRUCTIONS TO VISIBILITY.
      SKY/WX - SKY CONDITION AND SIGNIFICANT WEATHER.
      TMP - AIR TEMPERATURE.    DP   - DEWPOINT TEMPERATURE.
      RH  - RELATIVE HUMIDITY.  PRES - PRESSURE.
      HX  - HEAT INDEX.         WCI  - WIND CHILL INDEX.

*  THESE STATIONS ARE NOT NWS OR FAA STATIONS AND ARE NOT UNDER
   NWS QUALITY CONTROL.

LAZ040-048-061>063-065-066-069-231300-
SOUTHEAST LOUISIANA

CITY           SKY/WX    TMP DP  RH WIND       PRES   REMARKS
N.O. AUDUBON     N/A     62  61  99 MISG        N/A
6HR MIN TEMP:  61; 6HR MAX TEMP:  62; 6HR PCP:  0.07;

N.O. INTL ARPT TSTM      63  61  93 E8        29.72S FOG
6HR MIN TEMP:  62; 6HR MAX TEMP:  65; 6HR PCP:  0.03;

N.O. LAKEFRONT LGT RAIN  63  61  93 SE5       29.75R VSB 1/2
6HR MIN TEMP:  60; 6HR MAX TEMP:  63; 6HR PCP:  0.07;

N.O. DOWNTOWN* CLOUDY    63  59  88 NE7       29.73F
6HR MIN TEMP:  61; 6HR MAX TEMP:  63; 6HR PCP:  0.06;

SLIDELL        CLOUDY    65  64  97 E3        29.73F FOG
6HR MIN TEMP:  64; 6HR MAX TEMP:  65; 6HR PCP:  0.02;

BATON ROUGE    RAIN      64  63  96 NE9       29.68F
6HR MIN TEMP:  63; 6HR MAX TEMP:  64; 6HR PCP:  0.17;

BOOTHVILLE     CLOUDY    68  68 100 SE9       29.72S
6HR MIN TEMP:  64; 6HR MAX TEMP:  68; 6HR PCP: TRACE;

BELLE CHASSE   RAIN      63  60  90 E8        29.73R
6HR MIN TEMP:  62; 6HR MAX TEMP:  63; 6HR PCP:  0.06;

BOGALUSA*      LGT RAIN  63  60  90 CALM      29.78S VSB 1
6HR MIN TEMP:  63; 6HR MAX TEMP:  64;

NEW ROADS*     RAIN      64  63  97 E9G20     29.68F
6HR MIN TEMP:  64; 6HR MAX TEMP:  65; 6HR PCP:  0.37;

GONZALES*      RAIN      62  62 100 E7        29.68F
6HR MIN TEMP:  62; 6HR MAX TEMP:  64; 6HR PCP:  0.13;

HAMMOND*       LGT RAIN  64  61  88 E5        29.73F
HOUMA*         SHOWER    64  64 100 SW10G20   29.76R FOG
PORT FOURCHON* CLOUDY    66  64  94 W28G43    29.81R FOG

$$

LAZ041-044-053-054-231300-
SOUTHWEST LOUISIANA

CITY           SKY/WX    TMP DP  RH WIND       PRES   REMARKS
LAKE CHARLES   CLOUDY    62  61  96 S5        29.63R
6HR MIN TEMP:  61; 6HR MAX TEMP:  66; 6HR PCP:  3.39;

LAFAYETTE      RAIN      64  50  60 SE5       29.65F
6HR MIN TEMP:  64; 6HR MAX TEMP:  66; 6HR PCP:  0.81;

PATTERSON      CLOUDY    63  61  94 W15       29.74R
6HR MIN TEMP:  63; 6HR MAX TEMP:  66;

SALT POINT       N/A     67  59  75 SW8       29.73R
6HR MIN TEMP:  67; 6HR MAX TEMP:  73; 6HR PCP:  0.45;

NEW IBERIA     LGT RAIN  63  61  93 SE3       29.67F
6HR MIN TEMP:  63; 6HR MAX TEMP:  67; 6HR PCP:  0.91;

CHENAULT AIRPK CLOUDY    61  61 100 S8        29.62

$$

LAZ027-028-231300-
CENTRAL LOUISIANA

CITY           SKY/WX    TMP DP  RH WIND       PRES   REMARKS
FORT POLK      LGT RAIN  63  62  97 N6        29.57F VSB 3/4
6HR MIN TEMP:  63; 6HR MAX TEMP:  64; 6HR PCP:  1.04;

ALEXANDRIA INT RAIN      64  62  93 E13G21    29.55F FOG
6HR MIN TEMP:  63; 6HR MAX TEMP:  64; 6HR PCP:  0.59;

ALEXANDRIA     LGT RAIN  63  61  93 E13G20    29.60F
6HR MIN TEMP:  63; 6HR MAX TEMP:  64; 6HR PCP:  0.57;


$$

LAZ001-002-231300-
NORTHWEST LOUISIANA

CITY           SKY/WX    TMP DP  RH WIND       PRES   REMARKS
SHREVEPORT     LGT RAIN  63  62  97 SE8       29.60F
6HR MIN TEMP:  62; 6HR MAX TEMP:  64; 6HR PCP:  0.67;

BARKSDALE AFB  LGT RAIN  63  63 100 SE9       29.61F
6HR MIN TEMP:  61; 6HR MAX TEMP:  62; 6HR PCP:  0.64;

DTN SHREVEPORT LGT RAIN  63  61  93 SE8       29.61F
6HR MIN TEMP:  61; 6HR MAX TEMP:  63; 6HR PCP:  0.53;


$$

LAZ014-016-231300-
NORTHEAST LOUISIANA

CITY           SKY/WX    TMP DP  RH WIND       PRES   REMARKS
MONROE         LGT RAIN  62  61  96 VRB3      29.69F FOG
6HR MIN TEMP:  60; 6HR MAX TEMP:  62; 6HR PCP:  0.09;

TALLULAH       LGT RAIN  62  59  90 SE9       29.72F
6HR MIN TEMP:  61; 6HR MAX TEMP:  63; 6HR PCP:  0.01;


$$




USA.gov is the U.S. government's official web portal to all federal, state and local government web resources and services.